{"data":{"norad_id":53068,"intl_designator":"2022-077AB","name":"STARLINK-4325","alt_names":[],"object_type":"PAYLOAD","status":"ACTIVE","operator":null,"country":"US","launch_date":"2022-07-11","launch_site_code":"AFWTR","launch_vehicle":null,"mission":null,"orbit_class":"UNKNOWN","rcs_meters":null,"size_class":null,"mass_kg":null,"dimensions":null,"purposes":["comms"],"wikipedia_slug":null,"has_3d_model":false,"image_url":null,"decayed_at":null,"tle_current":{"epoch":"2026-09-19T22:46:29.853696Z","epoch_age_seconds":119928,"freshness":"FRESH","line1":"1 53068U 22077AB  26262.94895664 -.00000009  00000+0  20583-5 0  9991","line2":"2 53068  97.2847  78.6267 0001578  91.1026 269.0397 15.33434240230265","mean_motion":15.3343424,"eccentricity":0.0001578,"inclination_deg":97.2847,"raan_deg":78.6267,"arg_perigee_deg":91.1026,"mean_anomaly_deg":269.0397,"bstar":2.0583e-6,"rev_number":23026,"period_min":93.906863590055,"perigee_km":464.49525107163,"apogee_km":466.65512663843,"semimajor_km":6843.712188855,"source":"CELESTRAK","updated_at":"2026-09-20T09:00:40.154972Z"}}}